NJE27G LIEE-LIPH

Flight info

Callsign NJE27G
Flight time N/A
Altitude 34000
Route KOVAS Q125 DEXUL DCT NEMIT DCT TIPNI DCT BOA DCT LUMAV DCT ROVIG
Aircraft CL60/M-SBDE1E2E3FGHIJ1J4J5J7M3RWXYZ/LB1V1D1

Departure

Time N/A
Airport Cagliari Elmas Airport (LIEE)

Arrival

Time 2026-04-29 12:04
Airport Treviso Airport (LIPH)
Time Latitude Longitude Altitude Speed Heading
2026-04-29 11:46 44.59404 11.34845 23191 ft 421 kts 16°
2026-04-29 11:46 44.62138 11.36205 22648 ft 417 kts 16°
2026-04-29 11:47 44.64866 11.37564 22113 ft 414 kts 16°
2026-04-29 11:47 44.67592 11.38923 21577 ft 411 kts 16°
2026-04-29 11:47 44.70274 11.40262 21057 ft 408 kts 16°
2026-04-29 11:47 44.72907 11.41577 20535 ft 405 kts 16°
2026-04-29 11:48 44.75551 11.42900 20019 ft 402 kts 16°
2026-04-29 11:48 44.78198 11.44225 19499 ft 399 kts 16°
2026-04-29 11:48 44.80797 11.45528 18992 ft 396 kts 16°
2026-04-29 11:48 44.83387 11.46827 18485 ft 394 kts 16°
2026-04-29 11:49 44.85965 11.48121 17981 ft 391 kts 16°
2026-04-29 11:49 44.88527 11.49409 17480 ft 388 kts 16°
2026-04-29 11:49 44.91054 11.50680 16988 ft 386 kts 16°
2026-04-29 11:49 44.93571 11.51946 16492 ft 383 kts 16°
2026-04-29 11:50 44.96098 11.53220 15997 ft 381 kts 16°
2026-04-29 11:50 44.98569 11.54468 15511 ft 378 kts 16°
2026-04-29 11:50 45.01062 11.55726 15023 ft 376 kts 17°
2026-04-29 11:50 45.03538 11.56978 14540 ft 373 kts 17°
2026-04-29 11:51 45.05949 11.58198 14068 ft 370 kts 17°
2026-04-29 11:51 45.08363 11.59421 13592 ft 363 kts 17°
2026-04-29 11:51 45.10717 11.60616 13136 ft 354 kts 17°
2026-04-29 11:51 45.13003 11.61777 12686 ft 345 kts 17°
2026-04-29 11:52 45.15249 11.62919 12245 ft 337 kts 17°
2026-04-29 11:52 45.17435 11.64031 11816 ft 328 kts 17°
2026-04-29 11:52 45.19570 11.65118 11389 ft 322 kts 18°
2026-04-29 11:52 45.21653 11.66177 10975 ft 316 kts 18°
2026-04-29 11:53 45.23719 11.67231 10549 ft 311 kts 18°
2026-04-29 11:53 45.25737 11.68261 10134 ft 308 kts 18°
2026-04-29 11:53 45.27738 11.69281 9718 ft 310 kts 18°
2026-04-29 11:53 45.29796 11.70331 9306 ft 309 kts 18°
2026-04-29 11:54 45.31798 11.71354 8911 ft 306 kts 18°
2026-04-29 11:54 45.33780 11.72367 8513 ft 300 kts 19°
2026-04-29 11:54 45.35740 11.73371 8111 ft 295 kts 19°
2026-04-29 11:54 45.37652 11.74351 7709 ft 290 kts 19°
2026-04-29 11:55 45.39596 11.74969 7295 ft 283 kts
2026-04-29 11:55 45.41510 11.74598 6866 ft 277 kts 346°
2026-04-29 11:55 45.43384 11.73996 6458 ft 274 kts 347°
2026-04-29 11:55 45.45250 11.73408 6046 ft 270 kts 347°
2026-04-29 11:56 45.47061 11.72840 5773 ft 261 kts 347°
2026-04-29 11:56 45.48792 11.72399 5669 ft 246 kts 359°
2026-04-29 11:56 45.50361 11.73069 5576 ft 231 kts 35°
2026-04-29 11:56 45.51586 11.74441 5474 ft 219 kts 39°
2026-04-29 11:57 45.52748 11.75837 5371 ft 213 kts 46°
2026-04-29 11:57 45.53599 11.77558 5253 ft 214 kts 63°
2026-04-29 11:57 45.54181 11.79496 5132 ft 214 kts 69°
2026-04-29 11:57 45.54704 11.81485 5007 ft 213 kts 69°
2026-04-29 11:58 45.55216 11.83410 4913 ft 198 kts 69°
2026-04-29 11:58 45.55697 11.85203 4740 ft 192 kts 69°
2026-04-29 11:58 45.56175 11.86977 4494 ft 190 kts 69°
2026-04-29 11:58 45.56649 11.88743 4250 ft 189 kts 69°
2026-04-29 11:59 45.57114 11.90467 4010 ft 186 kts 69°
2026-04-29 11:59 45.57576 11.92191 3763 ft 186 kts 69°
2026-04-29 11:59 45.58039 11.93918 3519 ft 184 kts 69°
2026-04-29 11:59 45.58494 11.95611 3276 ft 182 kts 69°
2026-04-29 12:00 45.58944 11.97286 3038 ft 181 kts 69°
2026-04-29 12:00 45.59392 11.98959 2801 ft 180 kts 69°
2026-04-29 12:00 45.59837 12.00625 2588 ft 178 kts 69°
2026-04-29 12:00 45.60279 12.02272 2370 ft 176 kts 69°
2026-04-29 12:01 45.60709 12.03873 2127 ft 172 kts 69°
2026-04-29 12:01 45.61138 12.05477 1930 ft 173 kts 69°
2026-04-29 12:01 45.61551 12.07029 1728 ft 161 kts 69°
2026-04-29 12:01 45.61942 12.08496 1504 ft 150 kts 69°
2026-04-29 12:02 45.62288 12.09788 1319 ft 129 kts 68°
2026-04-29 12:02 45.62595 12.10936 1145 ft 119 kts 68°
2026-04-29 12:02 45.62889 12.12035 992 ft 118 kts 68°
2026-04-29 12:02 45.63175 12.13126 827 ft 118 kts 69°
2026-04-29 12:03 45.63468 12.14215 656 ft 117 kts 67°
2026-04-29 12:03 45.63768 12.15288 484 ft 116 kts 68°
2026-04-29 12:03 45.64045 12.16375 332 ft 115 kts 69°
2026-04-29 12:03 45.64328 12.17448 193 ft 116 kts 68°
2026-04-29 12:04 45.64610 12.18518 70 ft 110 kts 69°
2026-04-29 12:04 45.64856 12.19426 62 ft 82 kts 70°
2026-04-29 12:04 45.65020 12.20050 60 ft 54 kts 69°
2026-04-29 12:04 45.65139 12.20494 59 ft 35 kts 68°
2026-04-29 12:05 45.65202 12.20737 58 ft 6 kts 69°
2026-04-29 12:05 45.65221 12.20796 58 ft 4 kts 36°
2026-04-29 12:05 45.65266 12.20786 58 ft 8 kts 339°
2026-04-29 12:05 45.65328 12.20753 58 ft 9 kts 339°
2026-04-29 12:06 45.65365 12.20732 59 ft 5 kts 338°
2026-04-29 12:06 45.65379 12.20670 59 ft 9 kts 250°
2026-04-29 12:06 45.65349 12.20556 59 ft 14 kts 249°
2026-04-29 12:06 45.65309 12.20408 59 ft 17 kts 249°
2026-04-29 12:07 45.65277 12.20288 60 ft 11 kts 249°
2026-04-29 12:07 45.65259 12.20220 60 ft 2 kts 253°
2026-04-29 12:07 45.65266 12.20194 60 ft 4 kts 338°
2026-04-29 12:07 45.65297 12.20168 60 ft 5 kts 273°
2026-04-29 12:08 45.65289 12.20135 60 ft 0 kts 250°